Time,TemperatureF,DewpointF,PressureIn,WindDirection,WindDirectionDegrees,WindSpeedMPH,WindSpeedGustMPH,Humidity,HourlyPrecipIn,Conditions,Clouds,dailyrainin,SolarRadiationWatts/m^2,SoftwareType,DateUTC
2013-08-03 00:00:00,77.6,74.1,30.01,SE,135,1.0,4.0,89,0.00,,FEW021,0.00,0.00,VWS V14.01,2013-08-03 04:00:00,
2013-08-03 00:05:00,77.6,74.1,30.01,SE,135,1.0,5.0,89,0.00,,FEW021,0.00,0.00,VWS V14.01,2013-08-03 04:05:00,
2013-08-03 00:10:00,77.5,73.7,30.01,SSE,158,1.0,4.0,88,0.00,,FEW021,0.00,0.00,VWS V14.01,2013-08-03 04:10:00,
2013-08-03 00:15:00,77.5,73.7,30.01,SSE,158,0.0,3.0,88,0.00,,FEW021,0.00,0.00,VWS V14.01,2013-08-03 04:15:00,
2013-08-03 00:20:00,77.5,73.7,30.01,SSE,158,0.0,2.0,88,0.00,,FEW021,0.00,0.00,VWS V14.01,2013-08-03 04:20:00,
2013-08-03 00:25:00,77.5,73.7,30.02,SSE,158,0.0,1.0,88,0.00,,FEW021,0.00,0.00,VWS V14.01,2013-08-03 04:25:00,
2013-08-03 00:30:00,77.5,73.7,30.02,SSE,158,0.0,1.0,88,0.00,,FEW021,0.00,0.00,VWS V14.01,2013-08-03 04:30:00,
2013-08-03 00:35:00,77.4,73.6,30.02,SSE,158,0.0,0.0,88,0.00,,FEW021,0.00,0.00,VWS V14.01,2013-08-03 04:35:00,
2013-08-03 00:40:00,77.4,73.6,30.02,SSE,158,0.0,0.0,88,0.00,,FEW021,0.00,0.00,VWS V14.01,2013-08-03 04:40:00,
2013-08-03 00:45:00,77.4,73.6,30.02,SSE,158,0.0,0.0,88,0.00,,FEW021,0.00,0.00,VWS V14.01,2013-08-03 04:45:00,
2013-08-03 00:50:00,77.5,73.7,30.02,SSE,158,0.0,0.0,88,0.00,,FEW021,0.00,0.00,VWS V14.01,2013-08-03 04:50:00,
2013-08-03 00:55:00,77.4,73.6,30.02,SSE,158,0.0,0.0,88,0.00,,FEW021,0.00,0.00,VWS V14.01,2013-08-03 04:55:00,
2013-08-03 01:00:00,77.4,73.6,30.02,SSE,158,0.0,1.0,88,0.00,,FEW021,0.00,0.00,VWS V14.01,2013-08-03 05:00:00,
2013-08-03 01:05:00,77.4,73.9,30.02,SSE,158,0.0,1.0,89,0.00,,FEW021,0.00,0.00,VWS V14.01,2013-08-03 05:05:00,
2013-08-03 01:10:00,77.4,73.9,30.02,SSE,158,0.0,1.0,89,0.00,,FEW021,0.00,0.00,VWS V14.01,2013-08-03 05:10:00,
2013-08-03 01:15:00,77.4,73.9,30.02,SSE,158,0.0,0.0,89,0.00,,FEW021,0.00,0.00,VWS V14.01,2013-08-03 05:15:00,
2013-08-03 01:20:00,77.4,73.9,30.02,SSE,158,0.0,0.0,89,0.00,,FEW021,0.00,0.00,VWS V14.01,2013-08-03 05:20:00,
2013-08-03 01:25:00,77.4,73.9,30.02,SSE,158,0.0,0.0,89,0.00,,FEW021,0.00,0.00,VWS V14.01,2013-08-03 05:25:00,
2013-08-03 01:30:00,77.3,73.8,30.02,SSE,158,0.0,0.0,89,0.00,,FEW021,0.00,0.00,VWS V14.01,2013-08-03 05:30:00,
2013-08-03 01:35:00,77.3,73.8,30.02,SSE,158,0.0,0.0,89,0.00,,FEW021,0.00,0.00,VWS V14.01,2013-08-03 05:35:00,
2013-08-03 01:40:00,77.3,73.8,30.02,SSE,158,0.0,0.0,89,0.00,,FEW021,0.00,0.00,VWS V14.01,2013-08-03 05:40:00,
2013-08-03 01:45:00,77.3,73.8,30.02,SSE,158,0.0,0.0,89,0.00,,FEW021,0.00,0.00,VWS V14.01,2013-08-03 05:45:00,
2013-08-03 01:50:00,77.3,73.8,30.02,SSE,158,0.0,0.0,89,0.00,,FEW021,0.00,0.00,VWS V14.01,2013-08-03 05:50:00,
2013-08-03 01:55:00,77.3,73.8,30.02,SSE,158,0.0,0.0,89,0.00,,FEW021,0.00,0.00,VWS V14.01,2013-08-03 05:55:00,
2013-08-03 02:00:00,77.4,73.9,30.03,SSE,158,0.0,0.0,89,0.00,,FEW021,0.00,0.00,VWS V14.01,2013-08-03 06:00:00,
2013-08-03 02:05:00,77.4,73.9,30.02,SSE,158,0.0,0.0,89,0.00,,FEW021,0.00,0.00,VWS V14.01,2013-08-03 06:05:00,
2013-08-03 02:10:00,77.4,74.2,30.03,SSE,158,0.0,0.0,90,0.00,,FEW021,0.00,0.00,VWS V14.01,2013-08-03 06:10:00,
2013-08-03 02:15:00,77.5,74.3,30.02,SSE,158,0.0,0.0,90,0.00,,FEW021,0.00,0.00,VWS V14.01,2013-08-03 06:15:00,
2013-08-03 02:20:00,77.6,74.4,30.02,SSE,158,0.0,0.0,90,0.00,,FEW021,0.00,0.00,VWS V14.01,2013-08-03 06:20:00,
2013-08-03 02:25:00,77.6,74.4,30.02,SSE,158,0.0,0.0,90,0.00,,FEW021,0.00,0.00,VWS V14.01,2013-08-03 06:25:00,
2013-08-03 02:30:00,77.7,74.5,30.02,SSE,158,0.0,0.0,90,0.00,,FEW021,0.00,0.00,VWS V14.01,2013-08-03 06:30:00,
2013-08-03 02:35:00,77.7,74.5,30.02,SSE,158,0.0,0.0,90,0.00,,FEW021,0.00,0.00,VWS V14.01,2013-08-03 06:35:00,
2013-08-03 02:40:00,77.7,74.5,30.02,SSE,158,0.0,0.0,90,0.00,,FEW021,0.00,0.00,VWS V14.01,2013-08-03 06:40:00,
2013-08-03 02:45:00,77.8,74.6,30.02,SSE,158,0.0,0.0,90,0.00,,FEW021,0.00,0.00,VWS V14.01,2013-08-03 06:45:00,
2013-08-03 02:50:00,77.8,74.6,30.02,SSE,158,0.0,0.0,90,0.00,,FEW021,0.00,0.00,VWS V14.01,2013-08-03 06:50:00,
2013-08-03 02:55:00,77.9,74.7,30.01,SSE,158,0.0,0.0,90,0.00,,FEW021,0.00,0.00,VWS V14.01,2013-08-03 06:55:00,
2013-08-03 03:00:00,78.0,74.8,30.01,SSE,158,0.0,3.0,90,0.00,,FEW021,0.00,0.00,VWS V14.01,2013-08-03 07:00:00,
2013-08-03 03:05:00,78.0,74.8,30.01,SSE,158,1.0,4.0,90,0.00,,FEW021,0.00,0.00,VWS V14.01,2013-08-03 07:05:00,
2013-08-03 03:10:00,78.1,74.9,30.01,SSE,158,0.0,4.0,90,0.00,,FEW021,0.00,0.00,VWS V14.01,2013-08-03 07:10:00,
2013-08-03 03:15:00,78.1,74.9,30.00,SSE,158,0.0,2.0,90,0.00,,FEW021,0.00,0.00,VWS V14.01,2013-08-03 07:15:00,
2013-08-03 03:20:00,78.2,75.0,30.00,SSE,158,0.0,3.0,90,0.00,,FEW021,0.00,0.00,VWS V14.01,2013-08-03 07:20:00,
2013-08-03 03:25:00,78.2,75.0,30.00,SSE,158,0.0,1.0,90,0.00,,FEW021,0.00,0.00,VWS V14.01,2013-08-03 07:25:00,
2013-08-03 03:30:00,78.2,75.0,30.00,SSE,158,1.0,3.0,90,0.00,,FEW021,0.00,0.00,VWS V14.01,2013-08-03 07:30:00,
2013-08-03 03:35:00,78.1,74.9,30.00,SSE,158,0.0,2.0,90,0.00,,FEW021,0.00,0.00,VWS V14.01,2013-08-03 07:35:00,
2013-08-03 03:40:00,78.1,74.9,30.00,SSE,158,1.0,3.0,90,0.00,,FEW021,0.00,0.00,VWS V14.01,2013-08-03 07:40:00,
2013-08-03 03:45:00,78.2,75.0,30.00,SSE,158,1.0,4.0,90,0.00,,FEW021,0.00,0.00,VWS V14.01,2013-08-03 07:45:00,
2013-08-03 03:50:00,78.2,75.0,30.00,SSE,158,0.0,2.0,90,0.00,,FEW021,0.00,0.00,VWS V14.01,2013-08-03 07:50:00,
2013-08-03 03:55:00,78.2,75.0,30.00,SSE,158,0.0,2.0,90,0.00,,FEW021,0.00,0.00,VWS V14.01,2013-08-03 07:55:00,
2013-08-03 04:00:00,78.3,75.1,30.00,SSE,158,1.0,4.0,90,0.00,,FEW021,0.00,0.00,VWS V14.01,2013-08-03 08:00:00,
2013-08-03 04:05:00,78.3,75.1,29.99,SSE,158,0.0,2.0,90,0.00,,FEW021,0.00,0.00,VWS V14.01,2013-08-03 08:05:00,
2013-08-03 04:10:00,78.3,75.1,29.99,SSE,158,0.0,1.0,90,0.00,,FEW021,0.00,0.00,VWS V14.01,2013-08-03 08:10:00,
2013-08-03 04:15:00,78.3,75.1,30.00,SSE,158,0.0,2.0,90,0.00,,FEW021,0.00,0.00,VWS V14.01,2013-08-03 08:15:00,
2013-08-03 04:20:00,78.3,75.1,29.99,SSE,158,0.0,0.0,90,0.00,,FEW021,0.00,0.00,VWS V14.01,2013-08-03 08:20:00,
2013-08-03 04:25:00,78.3,75.1,29.99,SSE,158,0.0,0.0,90,0.00,,FEW021,0.00,0.00,VWS V14.01,2013-08-03 08:25:00,
2013-08-03 04:30:00,78.3,75.1,29.99,SSE,158,0.0,0.0,90,0.00,,FEW021,0.00,0.00,VWS V14.01,2013-08-03 08:30:00,
2013-08-03 04:35:00,78.3,75.1,30.00,SSE,158,0.0,0.0,90,0.00,,FEW021,0.00,0.00,VWS V14.01,2013-08-03 08:35:00,
2013-08-03 04:40:00,78.3,75.1,30.00,SSE,158,0.0,0.0,90,0.00,,FEW021,0.00,0.00,VWS V14.01,2013-08-03 08:40:00,
2013-08-03 04:45:00,78.3,75.1,30.00,SSE,158,0.0,0.0,90,0.00,,FEW021,0.00,0.00,VWS V14.01,2013-08-03 08:45:00,
2013-08-03 04:50:00,78.4,75.6,30.00,SSE,158,0.0,0.0,91,0.00,,FEW021,0.00,0.00,VWS V14.01,2013-08-03 08:50:00,
2013-08-03 04:55:00,78.4,75.6,30.00,SSE,158,0.0,1.0,91,0.00,,FEW021,0.00,0.00,VWS V14.01,2013-08-03 08:55:00,
2013-08-03 05:00:00,78.4,75.6,30.01,SSE,158,0.0,1.0,91,0.00,,FEW021,0.00,0.00,VWS V14.01,2013-08-03 09:00:00,
2013-08-03 05:05:00,78.4,75.6,30.00,SSE,158,0.0,1.0,91,0.00,,FEW021,0.00,0.00,VWS V14.01,2013-08-03 09:05:00,
2013-08-03 05:10:00,78.4,75.6,30.01,SSE,158,0.0,1.0,91,0.00,,FEW021,0.00,0.00,VWS V14.01,2013-08-03 09:10:00,
2013-08-03 05:15:00,78.4,75.6,30.01,SSE,158,0.0,2.0,91,0.00,,FEW021,0.00,0.00,VWS V14.01,2013-08-03 09:15:00,
2013-08-03 05:20:00,78.4,75.6,30.00,SSE,158,0.0,0.0,91,0.00,,FEW021,0.00,0.00,VWS V14.01,2013-08-03 09:20:00,
2013-08-03 05:25:00,78.5,75.7,30.00,SSE,158,0.0,1.0,91,0.00,,FEW021,0.00,0.00,VWS V14.01,2013-08-03 09:25:00,
2013-08-03 05:30:00,78.5,75.7,30.00,SSE,158,0.0,1.0,91,0.00,,FEW021,0.00,0.00,VWS V14.01,2013-08-03 09:30:00,
2013-08-03 05:35:00,78.5,75.7,30.00,SSE,158,0.0,1.0,91,0.00,,FEW021,0.00,0.00,VWS V14.01,2013-08-03 09:35:00,
2013-08-03 05:40:00,78.5,75.7,30.00,SSE,158,0.0,0.0,91,0.00,,FEW021,0.00,0.00,VWS V14.01,2013-08-03 09:40:00,
2013-08-03 05:45:00,78.5,75.7,30.00,SSE,158,0.0,0.0,91,0.00,,FEW021,0.00,0.00,VWS V14.01,2013-08-03 09:45:00,
2013-08-03 05:50:00,78.5,75.7,30.00,SSE,158,0.0,0.0,91,0.00,,FEW021,0.00,0.00,VWS V14.01,2013-08-03 09:50:00,
2013-08-03 05:55:00,78.5,75.7,30.00,SSE,158,0.0,0.0,91,0.00,,FEW021,0.00,0.00,VWS V14.01,2013-08-03 09:55:00,
2013-08-03 06:00:00,78.5,75.7,30.01,SSE,158,0.0,0.0,91,0.00,,FEW021,0.00,0.00,VWS V14.01,2013-08-03 10:00:00,
2013-08-03 06:05:00,78.6,75.8,30.01,SSE,158,0.0,0.0,91,0.00,,FEW021,0.00,0.00,VWS V14.01,2013-08-03 10:05:00,
2013-08-03 06:10:00,78.6,75.8,30.01,SSE,158,0.0,0.0,91,0.00,,FEW021,0.00,0.00,VWS V14.01,2013-08-03 10:10:00,
2013-08-03 06:15:00,78.5,75.7,30.02,SSE,158,0.0,1.0,91,0.00,,FEW021,0.00,0.00,VWS V14.01,2013-08-03 10:15:00,
2013-08-03 06:20:00,78.6,75.8,30.02,SSE,158,0.0,1.0,91,0.00,,FEW021,0.00,0.00,VWS V14.01,2013-08-03 10:20:00,
2013-08-03 06:25:00,78.6,75.8,30.02,SSE,158,0.0,1.0,91,0.00,,FEW021,0.00,0.00,VWS V14.01,2013-08-03 10:25:00,
2013-08-03 06:30:00,78.6,75.8,30.02,SSE,158,0.0,1.0,91,0.00,,FEW021,0.00,0.00,VWS V14.01,2013-08-03 10:30:00,
2013-08-03 06:35:00,78.6,75.8,30.02,SSE,158,0.0,0.0,91,0.00,,FEW021,0.00,0.00,VWS V14.01,2013-08-03 10:35:00,
2013-08-03 06:40:00,78.6,75.8,30.03,SSE,158,0.0,0.0,91,0.00,,FEW021,0.00,0.00,VWS V14.01,2013-08-03 10:40:00,
2013-08-03 06:45:00,78.7,75.9,30.03,SSE,158,0.0,1.0,91,0.00,,FEW021,0.00,0.00,VWS V14.01,2013-08-03 10:45:00,
2013-08-03 06:50:00,78.6,75.8,30.03,SSE,158,0.0,0.0,91,0.00,,FEW021,0.00,0.00,VWS V14.01,2013-08-03 10:50:00,
2013-08-03 06:55:00,78.6,75.8,30.04,SSE,158,0.0,0.0,91,0.00,,FEW021,0.00,0.00,VWS V14.01,2013-08-03 10:55:00,
2013-08-03 07:00:00,78.5,75.7,30.04,SSE,158,0.0,1.0,91,0.00,,FEW021,0.00,2.00,VWS V14.01,2013-08-03 11:00:00,
2013-08-03 07:05:00,78.5,75.7,30.04,SSE,158,0.0,1.0,91,0.00,,FEW021,0.00,7.00,VWS V14.01,2013-08-03 11:05:00,
2013-08-03 07:10:00,78.5,75.7,30.04,SSE,158,0.0,1.0,91,0.00,,FEW021,0.00,10.00,VWS V14.01,2013-08-03 11:10:00,
2013-08-03 07:15:00,78.6,75.8,30.04,SSE,158,0.0,1.0,91,0.00,,FEW021,0.00,14.00,VWS V14.01,2013-08-03 11:15:00,
2013-08-03 07:20:00,78.6,75.8,30.05,SSE,158,0.0,2.0,91,0.00,,FEW021,0.00,18.00,VWS V14.01,2013-08-03 11:20:00,
2013-08-03 07:25:00,78.6,75.8,30.05,SSE,158,1.0,3.0,91,0.00,,FEW021,0.00,22.00,VWS V14.01,2013-08-03 11:25:00,
2013-08-03 07:30:00,78.7,75.9,30.05,SSE,158,0.0,2.0,91,0.00,,FEW021,0.00,26.00,VWS V14.01,2013-08-03 11:30:00,
2013-08-03 07:35:00,78.7,75.9,30.05,SE,135,1.0,4.0,91,0.00,,FEW021,0.00,30.00,VWS V14.01,2013-08-03 11:35:00,
2013-08-03 07:40:00,78.6,75.8,30.04,SE,135,1.0,3.0,91,0.00,,FEW021,0.00,36.00,VWS V14.01,2013-08-03 11:40:00,
2013-08-03 07:45:00,78.6,75.8,30.04,SE,135,1.0,4.0,91,0.00,,FEW021,0.00,42.00,VWS V14.01,2013-08-03 11:45:00,
2013-08-03 07:50:00,78.6,75.8,30.04,SE,135,0.0,3.0,91,0.00,,FEW021,0.00,46.00,VWS V14.01,2013-08-03 11:50:00,
2013-08-03 07:55:00,78.7,75.9,30.04,SE,135,0.0,2.0,91,0.00,,FEW021,0.00,48.00,VWS V14.01,2013-08-03 11:55:00,
2013-08-03 08:00:00,78.8,75.9,30.05,SE,135,1.0,5.0,91,0.00,,FEW021,0.00,45.00,VWS V14.01,2013-08-03 12:00:00,
2013-08-03 08:05:00,78.8,75.9,30.05,SE,135,1.0,4.0,91,0.00,,FEW021,0.00,44.00,VWS V14.01,2013-08-03 12:05:00,
2013-08-03 08:10:00,78.9,76.1,30.05,SE,135,2.0,6.0,91,0.00,,FEW021,0.00,44.00,VWS V14.01,2013-08-03 12:10:00,
2013-08-03 08:15:00,79.0,76.2,30.05,SE,135,2.0,5.0,91,0.00,,FEW021,0.00,48.00,VWS V14.01,2013-08-03 12:15:00,
2013-08-03 08:20:00,79.2,76.3,30.05,ESE,112,3.0,6.0,91,0.00,,FEW021,0.00,54.00,VWS V14.01,2013-08-03 12:20:00,
2013-08-03 08:25:00,79.3,76.1,30.06,ESE,112,2.0,6.0,90,0.00,,FEW021,0.00,62.00,VWS V14.01,2013-08-03 12:25:00,
2013-08-03 08:30:00,79.5,76.3,30.06,ESE,112,4.0,9.0,90,0.00,,FEW021,0.00,69.00,VWS V14.01,2013-08-03 12:30:00,
2013-08-03 08:35:00,79.7,76.5,30.06,ESE,112,3.0,12.0,90,0.00,,FEW021,0.00,70.00,VWS V14.01,2013-08-03 12:35:00,
2013-08-03 08:40:00,79.6,76.1,30.06,East,90,4.0,12.0,89,0.00,,FEW021,0.00,70.00,VWS V14.01,2013-08-03 12:40:00,
2013-08-03 08:45:00,79.2,75.0,30.06,ESE,112,6.0,12.0,87,0.00,,FEW021,0.00,74.00,VWS V14.01,2013-08-03 12:45:00,
2013-08-03 08:50:00,79.1,74.6,30.06,ESE,112,5.0,13.0,86,0.00,,FEW021,0.00,75.00,VWS V14.01,2013-08-03 12:50:00,
2013-08-03 08:55:00,79.0,74.1,30.07,ESE,112,2.0,6.0,85,0.00,,FEW021,0.00,87.00,VWS V14.01,2013-08-03 12:55:00,
2013-08-03 09:00:00,79.0,73.8,30.07,East,90,2.0,7.0,84,0.00,,FEW021,0.00,98.00,VWS V14.01,2013-08-03 13:00:00,
2013-08-03 09:05:00,79.0,73.4,30.07,ESE,112,2.0,5.0,83,0.00,,FEW021,0.00,112.00,VWS V14.01,2013-08-03 13:05:00,
2013-08-03 09:10:00,79.1,73.5,30.06,East,90,2.0,5.0,83,0.00,,FEW021,0.00,129.00,VWS V14.01,2013-08-03 13:10:00,
2013-08-03 09:15:00,79.2,73.2,30.06,East,90,1.0,5.0,82,0.00,,FEW021,0.00,148.00,VWS V14.01,2013-08-03 13:15:00,
2013-08-03 09:20:00,79.3,73.3,30.06,SE,135,2.0,6.0,82,0.00,,FEW021,0.00,158.00,VWS V14.01,2013-08-03 13:20:00,
2013-08-03 09:25:00,79.5,73.2,30.06,SE,135,3.0,7.0,81,0.00,,FEW021,0.00,163.00,VWS V14.01,2013-08-03 13:25:00,
2013-08-03 09:30:00,79.7,73.4,30.06,SE,135,1.0,3.0,81,0.00,,FEW021,0.00,163.00,VWS V14.01,2013-08-03 13:30:00,
2013-08-03 09:35:00,80.0,74.0,30.06,SSE,158,1.0,5.0,82,0.00,,FEW021,0.00,159.00,VWS V14.01,2013-08-03 13:35:00,
2013-08-03 09:40:00,80.2,74.2,30.06,ESE,112,2.0,7.0,82,0.00,,FEW021,0.00,160.00,VWS V14.01,2013-08-03 13:40:00,
2013-08-03 09:45:00,80.4,74.4,30.06,SE,135,2.0,7.0,82,0.00,,FEW021,0.00,166.00,VWS V14.01,2013-08-03 13:45:00,
2013-08-03 09:50:00,80.6,74.6,30.07,SE,135,2.0,7.0,82,0.00,,FEW021,0.00,171.00,VWS V14.01,2013-08-03 13:50:00,
2013-08-03 09:55:00,80.8,74.8,30.07,SE,135,2.0,6.0,82,0.00,,FEW021,0.00,172.00,VWS V14.01,2013-08-03 13:55:00,
2013-08-03 10:00:00,81.0,74.6,30.07,SE,135,3.0,7.0,81,0.00,,FEW021,0.00,172.00,VWS V14.01,2013-08-03 14:00:00,
2013-08-03 10:05:00,81.1,74.7,30.07,SE,135,3.0,7.0,81,0.00,,FEW021,0.00,174.00,VWS V14.01,2013-08-03 14:05:00,
2013-08-03 10:10:00,81.4,75.0,30.07,SSE,158,2.0,5.0,81,0.00,,FEW021,0.00,172.00,VWS V14.01,2013-08-03 14:10:00,
2013-08-03 10:15:00,81.6,75.2,30.07,SSE,158,2.0,6.0,81,0.00,,FEW021,0.00,178.00,VWS V14.01,2013-08-03 14:15:00,
2013-08-03 10:20:00,81.8,75.0,30.07,SSE,158,2.0,6.0,80,0.00,,FEW021,0.00,193.00,VWS V14.01,2013-08-03 14:20:00,
2013-08-03 10:25:00,82.0,75.2,30.07,SSE,158,2.0,6.0,80,0.00,,FEW021,0.00,201.00,VWS V14.01,2013-08-03 14:25:00,
2013-08-03 10:30:00,82.3,75.1,30.07,SE,135,3.0,6.0,79,0.00,,FEW021,0.00,209.00,VWS V14.01,2013-08-03 14:30:00,
2013-08-03 10:35:00,82.5,75.3,30.07,SE,135,3.0,6.0,79,0.00,,FEW021,0.00,209.00,VWS V14.01,2013-08-03 14:35:00,
2013-08-03 10:40:00,82.7,75.5,30.07,South,180,2.0,5.0,79,0.00,,FEW021,0.00,213.00,VWS V14.01,2013-08-03 14:40:00,
2013-08-03 10:45:00,82.9,75.7,30.07,SE,135,2.0,5.0,79,0.00,,FEW021,0.00,212.00,VWS V14.01,2013-08-03 14:45:00,
2013-08-03 10:50:00,83.2,76.0,30.07,SE,135,2.0,5.0,79,0.00,,FEW021,0.00,212.00,VWS V14.01,2013-08-03 14:50:00,
2013-08-03 10:55:00,83.4,76.2,30.07,SSE,158,1.0,4.0,79,0.00,,FEW021,0.00,208.00,VWS V14.01,2013-08-03 14:55:00,
2013-08-03 11:00:00,83.5,76.3,30.07,SSE,158,1.0,6.0,79,0.00,,FEW021,0.00,207.00,VWS V14.01,2013-08-03 15:00:00,
2013-08-03 11:05:00,83.6,76.4,30.07,SE,135,1.0,3.0,79,0.00,,FEW021,0.00,200.00,VWS V14.01,2013-08-03 15:05:00,
2013-08-03 11:10:00,83.7,76.1,30.08,SE,135,2.0,6.0,78,0.00,,FEW021,0.00,182.00,VWS V14.01,2013-08-03 15:10:00,
2013-08-03 11:15:00,83.8,76.2,30.08,SE,135,2.0,6.0,78,0.00,,FEW021,0.00,173.00,VWS V14.01,2013-08-03 15:15:00,
2013-08-03 11:20:00,83.8,76.2,30.08,SE,135,2.0,6.0,78,0.00,,FEW021,0.00,168.00,VWS V14.01,2013-08-03 15:20:00,
2013-08-03 11:25:00,83.9,76.3,30.07,SE,135,1.0,4.0,78,0.00,,FEW021,0.00,165.00,VWS V14.01,2013-08-03 15:25:00,
2013-08-03 11:30:00,84.0,76.4,30.07,SE,135,1.0,4.0,78,0.00,,FEW021,0.00,167.00,VWS V14.01,2013-08-03 15:30:00,
2013-08-03 11:35:00,84.0,76.4,30.07,SE,135,1.0,4.0,78,0.00,,FEW021,0.00,175.00,VWS V14.01,2013-08-03 15:35:00,
2013-08-03 11:40:00,83.9,75.9,30.07,ESE,112,2.0,6.0,77,0.00,,FEW021,0.00,189.00,VWS V14.01,2013-08-03 15:40:00,
2013-08-03 11:45:00,84.0,76.0,30.08,ESE,112,1.0,5.0,77,0.00,,FEW021,0.00,201.00,VWS V14.01,2013-08-03 15:45:00,
2013-08-03 11:50:00,84.2,76.2,30.08,SSE,158,2.0,5.0,77,0.00,,FEW021,0.00,212.00,VWS V14.01,2013-08-03 15:50:00,
2013-08-03 11:55:00,84.3,76.3,30.07,SSE,158,2.0,5.0,77,0.00,,FEW021,0.00,223.00,VWS V14.01,2013-08-03 15:55:00,
2013-08-03 12:00:00,84.4,76.8,30.07,SE,135,2.0,5.0,78,0.00,,FEW021,0.00,244.00,VWS V14.01,2013-08-03 16:00:00,
2013-08-03 12:05:00,84.5,76.9,30.08,SE,135,3.0,7.0,78,0.00,,FEW021,0.00,251.00,VWS V14.01,2013-08-03 16:05:00,
2013-08-03 12:10:00,84.6,77.4,30.08,SE,135,2.0,5.0,79,0.00,,FEW021,0.00,278.00,VWS V14.01,2013-08-03 16:10:00,
2013-08-03 12:15:00,84.8,77.6,30.08,SE,135,1.0,4.0,79,0.00,,FEW021,0.00,308.00,VWS V14.01,2013-08-03 16:15:00,
2013-08-03 12:20:00,85.2,78.3,30.07,SE,135,1.0,3.0,80,0.00,,FEW021,0.00,320.00,VWS V14.01,2013-08-03 16:20:00,
2013-08-03 12:25:00,85.2,77.9,30.07,SE,135,2.0,6.0,79,0.00,,FEW021,0.00,314.00,VWS V14.01,2013-08-03 16:25:00,
2013-08-03 12:30:00,85.2,77.9,30.07,SE,135,2.0,7.0,79,0.00,,FEW021,0.00,293.00,VWS V14.01,2013-08-03 16:30:00,
2013-08-03 12:35:00,85.1,77.9,30.07,SE,135,3.0,8.0,79,0.00,,FEW021,0.00,273.00,VWS V14.01,2013-08-03 16:35:00,
2013-08-03 12:40:00,85.2,77.9,30.07,SE,135,2.0,7.0,79,0.00,,FEW021,0.00,252.00,VWS V14.01,2013-08-03 16:40:00,
2013-08-03 12:45:00,85.2,77.9,30.07,SE,135,4.0,7.0,79,0.00,,FEW021,0.00,242.00,VWS V14.01,2013-08-03 16:45:00,
2013-08-03 12:50:00,85.3,78.1,30.07,SE,135,1.0,4.0,79,0.00,,FEW021,0.00,249.00,VWS V14.01,2013-08-03 16:50:00,
2013-08-03 12:55:00,85.4,78.2,30.08,SSE,158,2.0,6.0,79,0.00,,FEW021,0.00,269.00,VWS V14.01,2013-08-03 16:55:00,
2013-08-03 13:00:00,85.5,78.2,30.07,SSE,158,2.0,4.0,79,0.00,,FEW021,0.00,288.00,VWS V14.01,2013-08-03 17:00:00,
2013-08-03 13:05:00,85.7,78.1,30.07,SSE,158,1.0,4.0,78,0.00,,FEW021,0.00,297.00,VWS V14.01,2013-08-03 17:05:00,
2013-08-03 13:10:00,85.9,78.2,30.07,SE,135,0.0,1.0,78,0.00,,FEW021,0.00,291.00,VWS V14.01,2013-08-03 17:10:00,
2013-08-03 13:15:00,86.1,78.4,30.07,SE,135,1.0,6.0,78,0.00,,FEW021,0.00,286.00,VWS V14.01,2013-08-03 17:15:00,
2013-08-03 13:20:00,86.1,78.4,30.07,ENE,68,1.0,3.0,78,0.00,,FEW021,0.00,281.00,VWS V14.01,2013-08-03 17:20:00,
2013-08-03 13:25:00,86.0,77.9,30.07,ENE,68,1.0,3.0,77,0.00,,FEW021,0.00,284.00,VWS V14.01,2013-08-03 17:25:00,
2013-08-03 13:30:00,86.1,78.4,30.07,ENE,68,0.0,2.0,78,0.00,,FEW021,0.00,312.00,VWS V14.01,2013-08-03 17:30:00,
2013-08-03 13:35:00,86.3,78.2,30.07,ENE,68,1.0,2.0,77,0.00,,FEW021,0.00,331.00,VWS V14.01,2013-08-03 17:35:00,
2013-08-03 13:40:00,86.4,77.9,30.07,ENE,68,0.0,3.0,76,0.00,,FEW021,0.00,341.00,VWS V14.01,2013-08-03 17:40:00,
2013-08-03 13:45:00,86.6,78.1,30.06,ENE,68,1.0,4.0,76,0.00,,FEW021,0.00,343.00,VWS V14.01,2013-08-03 17:45:00,
2013-08-03 13:50:00,86.7,78.2,30.07,ENE,68,1.0,4.0,76,0.00,,FEW021,0.00,358.00,VWS V14.01,2013-08-03 17:50:00,
2013-08-03 13:55:00,86.6,78.1,30.06,ENE,68,1.0,2.0,76,0.00,,FEW021,0.00,378.00,VWS V14.01,2013-08-03 17:55:00,
2013-08-03 14:00:00,86.8,77.9,30.06,ENE,68,1.0,3.0,75,0.00,,FEW021,0.00,406.00,VWS V14.01,2013-08-03 18:00:00,
2013-08-03 14:05:00,87.0,77.7,30.06,ENE,68,1.0,4.0,74,0.00,,FEW021,0.00,417.00,VWS V14.01,2013-08-03 18:05:00,
2013-08-03 14:10:00,87.4,78.1,30.06,ENE,68,1.0,3.0,74,0.00,,FEW021,0.00,336.00,VWS V14.01,2013-08-03 18:10:00,
2013-08-03 14:15:00,87.5,77.8,30.06,ENE,68,0.0,2.0,73,0.00,,FEW021,0.00,269.00,VWS V14.01,2013-08-03 18:15:00,
2013-08-03 14:20:00,87.6,77.9,30.06,ENE,68,1.0,4.0,73,0.00,,FEW021,0.00,215.00,VWS V14.01,2013-08-03 18:20:00,
2013-08-03 14:25:00,87.8,78.5,30.06,South,180,2.0,6.0,74,0.00,,FEW021,0.00,156.00,VWS V14.01,2013-08-03 18:25:00,
2013-08-03 14:30:00,85.1,75.5,30.07,SW,225,10.0,28.0,73,0.07,,FEW021,0.07,26.00,VWS V14.01,2013-08-03 18:30:00,
2013-08-03 14:35:00,79.3,71.5,30.08,SW,225,13.0,25.0,77,0.31,,FEW021,0.31,9.00,VWS V14.01,2013-08-03 18:35:00,
2013-08-03 14:46:00,79.3,71.5,30.08,SW,225,13.0,25.0,77,0.31,,FEW021,0.31,9.00,VWS V14.01,2013-08-03 18:46:00,
2013-08-03 14:51:00,74.0,69.9,30.10,SSE,152,4.0,4.0,87,0.93,,SCT040,0.93,7.00,VWS V14.01,2013-08-03 18:51:00,
2013-08-03 14:56:00,73.5,69.4,30.10,ESE,102,3.0,6.0,87,0.95,,SCT040,0.95,5.00,VWS V14.01,2013-08-03 18:56:00,
2013-08-03 15:01:00,73.4,69.6,30.11,SE,146,2.0,3.0,88,0.98,,SCT040,0.98,5.00,VWS V14.01,2013-08-03 19:01:00,
2013-08-03 15:06:00,73.2,69.8,30.11,SE,145,0.0,1.0,89,0.98,, +RA,0.98,5.00,VWS V14.01,2013-08-03 19:06:00,
2013-08-03 15:11:00,72.8,69.4,30.11,SE,145,0.0,1.0,89,1.00,, +RA,1.00,5.00,VWS V14.01,2013-08-03 19:11:00,
2013-08-03 15:16:00,72.4,69.0,30.10,ENE,59,3.0,4.0,89,1.03,, +RA,1.03,5.00,VWS V14.01,2013-08-03 19:16:00,
2013-08-03 15:21:00,72.2,68.8,30.10,ENE,63,4.0,6.0,89,1.04,, +RA,1.04,5.00,VWS V14.01,2013-08-03 19:21:00,
2013-08-03 15:26:00,71.7,68.6,30.09,ENE,57,3.0,4.0,90,1.04,, +RA,1.04,7.00,VWS V14.01,2013-08-03 19:26:00,
2013-08-03 15:31:00,71.6,68.5,30.09,ENE,65,0.0,2.0,90,0.98,, +RA,1.05,7.00,VWS V14.01,2013-08-03 19:31:00,
2013-08-03 15:36:00,71.6,68.8,30.09,ENE,64,1.0,3.0,91,0.74,, +RA,1.05,9.00,VWS V14.01,2013-08-03 19:36:00,
2013-08-03 15:41:00,71.6,68.8,30.09,ENE,65,3.0,3.0,91,0.13,, +RA,1.05,11.00,VWS V14.01,2013-08-03 19:41:00,
2013-08-03 15:46:00,71.6,68.8,30.08,ENE,75,1.0,3.0,91,0.13,,RA,1.05,11.00,VWS V14.01,2013-08-03 19:46:00,
2013-08-03 15:51:00,71.6,69.2,30.08,ENE,77,1.0,3.0,92,0.13,,RA,1.06,12.00,VWS V14.01,2013-08-03 19:51:00,
2013-08-03 15:56:00,71.7,69.3,30.07,ENE,77,1.0,2.0,92,0.11,,RA,1.06,14.00,VWS V14.01,2013-08-03 19:56:00,
2013-08-03 16:01:00,71.7,69.3,30.07,ENE,77,0.0,1.0,92,0.09,,OVC035,1.06,16.00,VWS V14.01,2013-08-03 20:01:00,
2013-08-03 16:06:00,71.7,69.3,30.07,ENE,77,0.0,1.0,92,0.08,,OVC035,1.06,19.00,VWS V14.01,2013-08-03 20:06:00,
2013-08-03 16:11:00,71.7,69.3,30.07,ENE,77,0.0,0.0,92,0.06,,OVC035,1.06,21.00,VWS V14.01,2013-08-03 20:11:00,
2013-08-03 16:16:00,71.9,69.4,30.07,ENE,77,0.0,0.0,92,0.04,,OVC035,1.06,25.00,VWS V14.01,2013-08-03 20:16:00,
2013-08-03 16:21:00,71.9,69.4,30.07,ENE,77,0.0,0.0,92,0.02,,OVC035,1.06,26.00,VWS V14.01,2013-08-03 20:21:00,
2013-08-03 16:26:00,71.9,69.4,30.07,ENE,77,0.0,0.0,92,0.02,,OVC035,1.06,30.00,VWS V14.01,2013-08-03 20:26:00,
2013-08-03 16:31:00,72.0,69.9,30.07,ENE,77,0.0,0.0,93,0.02,,OVC035,1.07,32.00,VWS V14.01,2013-08-03 20:31:00,
2013-08-03 16:36:00,72.2,70.1,30.07,ENE,77,1.0,1.0,93,0.03,,OVC035,1.08,35.00,VWS V14.01,2013-08-03 20:36:00,
2013-08-03 16:41:00,72.3,70.2,30.07,ENE,77,0.0,0.0,93,0.03,,OVC035,1.08,37.00,VWS V14.01,2013-08-03 20:41:00,
2013-08-03 16:46:00,72.4,70.3,30.07,ENE,77,0.0,0.0,93,0.04,,OVC035,1.09,39.00,VWS V14.01,2013-08-03 20:46:00,
2013-08-03 16:51:00,72.7,70.6,30.08,ENE,77,0.0,0.0,93,0.03,,OVC035,1.09,40.00,VWS V14.01,2013-08-03 20:51:00,
2013-08-03 16:56:00,72.9,71.1,30.07,ENE,77,0.0,1.0,94,0.04,,OVC035,1.10,40.00,VWS V14.01,2013-08-03 20:56:00,
2013-08-03 17:01:00,73.0,71.2,30.08,ENE,77,0.0,0.0,94,0.04,,OVC035,1.10,44.00,VWS V14.01,2013-08-03 21:01:00,
2013-08-03 17:06:00,73.1,71.3,30.07,ENE,77,0.0,1.0,94,0.04,,OVC035,1.10,46.00,VWS V14.01,2013-08-03 21:06:00,
2013-08-03 17:11:00,73.0,71.2,30.07,ENE,77,0.0,0.0,94,0.04,,OVC035,1.10,49.00,VWS V14.01,2013-08-03 21:11:00,
2013-08-03 17:16:00,73.0,71.2,30.07,ENE,77,0.0,0.0,94,0.04,,OVC035,1.10,53.00,VWS V14.01,2013-08-03 21:16:00,
2013-08-03 17:21:00,73.1,71.3,30.07,ENE,77,0.0,0.0,94,0.04,,OVC035,1.10,58.00,VWS V14.01,2013-08-03 21:21:00,
2013-08-03 17:26:00,73.2,71.4,30.07,ENE,77,0.0,0.0,94,0.04,,OVC035,1.10,62.00,VWS V14.01,2013-08-03 21:26:00,
2013-08-03 17:31:00,73.3,71.5,30.07,ENE,77,0.0,0.0,94,0.03,,OVC035,1.10,65.00,VWS V14.01,2013-08-03 21:31:00,
2013-08-03 17:36:00,73.4,71.6,30.07,ENE,77,0.0,0.0,94,0.02,,OVC035,1.10,70.00,VWS V14.01,2013-08-03 21:36:00,
2013-08-03 17:41:00,73.6,71.8,30.07,ENE,77,0.0,0.0,94,0.02,,OVC035,1.10,74.00,VWS V14.01,2013-08-03 21:41:00,
2013-08-03 17:46:00,73.7,71.9,30.07,ENE,77,0.0,0.0,94,0.01,,OVC035,1.10,76.00,VWS V14.01,2013-08-03 21:46:00,
2013-08-03 17:51:00,73.9,72.1,30.07,ENE,77,0.0,0.0,94,0.01,,OVC035,1.10,77.00,VWS V14.01,2013-08-03 21:51:00,
2013-08-03 17:56:00,74.1,72.3,30.06,ENE,77,0.0,0.0,94,0.00,,OVC035,1.10,76.00,VWS V14.01,2013-08-03 21:56:00,
2013-08-03 18:01:00,74.2,72.4,30.06,ENE,77,0.0,1.0,94,0.00,,OVC035,1.10,72.00,VWS V14.01,2013-08-03 22:01:00,
2013-08-03 18:06:00,74.3,72.5,30.06,ENE,77,0.0,0.0,94,0.00,,OVC035,1.10,70.00,VWS V14.01,2013-08-03 22:06:00,
2013-08-03 18:11:00,74.2,72.4,30.06,ENE,77,0.0,0.0,94,0.00,,-RA,1.10,69.00,VWS V14.01,2013-08-03 22:11:00,
2013-08-03 18:16:00,74.2,72.4,30.06,ENE,77,0.0,0.0,94,0.00,,-RA,1.10,65.00,VWS V14.01,2013-08-03 22:16:00,
2013-08-03 18:21:00,74.3,72.5,30.06,ENE,77,0.0,0.0,94,0.00,,-RA,1.10,62.00,VWS V14.01,2013-08-03 22:21:00,
2013-08-03 18:26:00,74.3,72.5,30.05,ENE,77,0.0,0.0,94,0.00,,-RA,1.10,56.00,VWS V14.01,2013-08-03 22:26:00,
2013-08-03 18:31:00,74.4,72.6,30.05,ENE,77,0.0,0.0,94,0.00,,-RA,1.10,51.00,VWS V14.01,2013-08-03 22:31:00,
2013-08-03 18:35:00,74.5,72.7,30.05,ENE,77,0.0,0.0,94,0.00,,-RA,1.10,44.00,VWS V14.01,2013-08-03 22:35:00,
2013-08-03 18:41:00,74.6,72.8,30.05,ENE,77,0.0,1.0,94,0.00,,-RA,1.10,39.00,VWS V14.01,2013-08-03 22:41:00,
2013-08-03 18:46:00,74.6,72.8,30.05,ENE,77,1.0,1.0,94,0.00,,-RA,1.10,35.00,VWS V14.01,2013-08-03 22:46:00,
2013-08-03 18:51:00,74.6,72.8,30.04,ENE,77,1.0,1.0,94,0.00,,-RA,1.10,32.00,VWS V14.01,2013-08-03 22:51:00,
2013-08-03 18:56:00,74.7,72.9,30.04,ENE,77,0.0,0.0,94,0.00,,-RA,1.10,28.00,VWS V14.01,2013-08-03 22:56:00,
2013-08-03 19:01:00,74.7,72.9,30.04,ENE,77,0.0,0.0,94,0.00,,OVC090,1.10,21.00,VWS V14.01,2013-08-03 23:01:00,
2013-08-03 19:06:00,74.6,72.8,30.04,ENE,77,0.0,0.0,94,0.00,,OVC090,1.10,16.00,VWS V14.01,2013-08-03 23:06:00,
2013-08-03 19:11:00,74.6,72.8,30.04,ENE,77,0.0,0.0,94,0.00,,OVC090,1.10,12.00,VWS V14.01,2013-08-03 23:11:00,
2013-08-03 19:16:00,74.7,72.9,30.05,ENE,77,0.0,0.0,94,0.00,,OVC090,1.10,11.00,VWS V14.01,2013-08-03 23:16:00,
2013-08-03 19:21:00,74.6,72.8,30.05,ENE,77,0.0,0.0,94,0.00,,OVC090,1.10,9.00,VWS V14.01,2013-08-03 23:21:00,
2013-08-03 19:26:00,74.6,72.8,30.05,ENE,77,0.0,0.0,94,0.00,,OVC090,1.10,9.00,VWS V14.01,2013-08-03 23:26:00,
2013-08-03 19:31:00,74.6,72.8,30.06,ENE,77,0.0,0.0,94,0.00,,OVC090,1.10,9.00,VWS V14.01,2013-08-03 23:31:00,
2013-08-03 19:35:00,74.6,72.8,30.06,ENE,77,0.0,0.0,94,0.00,,OVC090,1.10,7.00,VWS V14.01,2013-08-03 23:35:00,
2013-08-03 19:41:00,74.5,73.0,30.07,ENE,77,0.0,0.0,95,0.00,,OVC090,1.10,5.00,VWS V14.01,2013-08-03 23:41:00,
2013-08-03 19:46:00,74.5,73.0,30.07,ENE,77,0.0,0.0,95,0.00,,OVC090,1.10,5.00,VWS V14.01,2013-08-03 23:46:00,
2013-08-03 19:51:00,74.5,73.0,30.07,ENE,77,0.0,0.0,95,0.00,,OVC090,1.10,0.00,VWS V14.01,2013-08-03 23:51:00,
2013-08-03 19:56:00,74.5,73.0,30.07,ENE,77,0.0,0.0,95,0.00,,OVC090,1.10,0.00,VWS V14.01,2013-08-03 23:56:00,
2013-08-03 20:01:00,74.6,73.1,30.07,ENE,77,0.0,0.0,95,0.00,,BKN120,1.10,0.00,VWS V14.01,2013-08-04 00:01:00,
2013-08-03 20:06:00,74.7,73.2,30.07,ENE,77,0.0,0.0,95,0.00,,BKN120,1.10,0.00,VWS V14.01,2013-08-04 00:06:00,
2013-08-03 20:11:00,74.8,73.0,30.07,ENE,77,0.0,0.0,94,0.00,,BKN120,1.10,0.00,VWS V14.01,2013-08-04 00:11:00,
2013-08-03 20:16:00,74.8,73.0,30.07,ENE,77,0.0,0.0,94,0.00,,BKN120,1.10,0.00,VWS V14.01,2013-08-04 00:16:00,
2013-08-03 20:21:00,74.9,73.4,30.07,ENE,77,0.0,0.0,95,0.00,,BKN120,1.10,0.00,VWS V14.01,2013-08-04 00:21:00,
2013-08-03 20:26:00,75.0,73.5,30.07,ENE,77,0.0,0.0,95,0.00,,BKN120,1.10,0.00,VWS V14.01,2013-08-04 00:26:00,
2013-08-03 20:31:00,75.2,73.7,30.07,ENE,77,0.0,0.0,95,0.00,,BKN120,1.10,0.00,VWS V14.01,2013-08-04 00:31:00,
2013-08-03 20:36:00,75.2,73.7,30.07,ENE,77,0.0,0.0,95,0.00,,BKN120,1.10,0.00,VWS V14.01,2013-08-04 00:36:00,
2013-08-03 20:41:00,75.2,73.7,30.07,ENE,77,0.0,0.0,95,0.00,,BKN120,1.10,0.00,VWS V14.01,2013-08-04 00:41:00,
2013-08-03 20:46:00,75.2,73.7,30.07,ENE,77,0.0,0.0,95,0.00,,BKN120,1.10,0.00,VWS V14.01,2013-08-04 00:46:00,
2013-08-03 20:51:00,75.2,73.7,30.06,ENE,77,0.0,0.0,95,0.00,,BKN120,1.10,0.00,VWS V14.01,2013-08-04 00:51:00,
2013-08-03 20:56:00,75.2,73.7,30.07,ENE,77,0.0,0.0,95,0.00,,BKN120,1.10,0.00,VWS V14.01,2013-08-04 00:56:00,
2013-08-03 21:01:00,75.1,73.6,30.06,ENE,77,0.0,0.0,95,0.00,,BKN120,1.10,0.00,VWS V14.01,2013-08-04 01:01:00,
2013-08-03 21:06:00,75.2,73.7,30.06,ENE,77,0.0,0.0,95,0.00,,BKN120,1.10,0.00,VWS V14.01,2013-08-04 01:06:00,
2013-08-03 21:11:00,75.2,73.7,30.06,ENE,77,0.0,0.0,95,0.00,,BKN120,1.10,0.00,VWS V14.01,2013-08-04 01:11:00,
2013-08-03 21:16:00,75.2,73.7,30.07,ENE,77,0.0,0.0,95,0.00,,BKN120,1.10,0.00,VWS V14.01,2013-08-04 01:16:00,
2013-08-03 21:21:00,75.2,73.7,30.07,ENE,77,0.0,0.0,95,0.00,,BKN120,1.10,0.00,VWS V14.01,2013-08-04 01:21:00,
2013-08-03 21:26:00,75.3,73.8,30.07,ENE,77,0.0,0.0,95,0.00,,BKN120,1.10,0.00,VWS V14.01,2013-08-04 01:26:00,
2013-08-03 21:31:00,75.3,73.8,30.07,ENE,77,0.0,0.0,95,0.00,,BKN120,1.10,0.00,VWS V14.01,2013-08-04 01:31:00,
2013-08-03 21:36:00,75.3,73.8,30.07,ENE,77,0.0,0.0,95,0.00,,BKN120,1.10,0.00,VWS V14.01,2013-08-04 01:36:00,
2013-08-03 21:41:00,75.4,73.9,30.07,ENE,77,0.0,0.0,95,0.00,,BKN120,1.10,0.00,VWS V14.01,2013-08-04 01:41:00,
2013-08-03 21:45:00,75.4,73.9,30.07,ENE,77,0.0,0.0,95,0.00,,BKN120,1.10,0.00,VWS V14.01,2013-08-04 01:45:00,
2013-08-03 21:46:00,75.4,73.9,30.07,ENE,77,0.0,0.0,95,0.00,,BKN120,1.10,0.00,VWS V14.01,2013-08-04 01:46:00,
2013-08-03 21:51:00,75.4,73.9,30.07,ENE,77,0.0,0.0,95,0.00,,BKN120,1.10,0.00,VWS V14.01,2013-08-04 01:51:00,
2013-08-03 21:55:00,75.4,73.9,30.07,ENE,77,0.0,0.0,95,0.00,,BKN120,1.10,0.00,VWS V14.01,2013-08-04 01:55:00,
2013-08-03 21:56:00,75.5,74.0,30.07,ENE,77,0.0,0.0,95,0.00,,BKN120,1.10,0.00,VWS V14.01,2013-08-04 01:56:00,
2013-08-03 22:00:00,75.5,74.0,30.08,ENE,77,0.0,0.0,95,0.00,,BKN120,1.10,0.00,VWS V14.01,2013-08-04 02:00:00,
2013-08-03 22:05:00,75.6,74.1,30.08,ENE,77,0.0,0.0,95,0.00,,BKN120,1.10,0.00,VWS V14.01,2013-08-04 02:05:00,
2013-08-03 22:11:00,75.7,74.2,30.08,ENE,77,0.0,0.0,95,0.00,,BKN120,1.10,0.00,VWS V14.01,2013-08-04 02:11:00,
2013-08-03 22:16:00,75.8,74.3,30.08,ENE,77,0.0,0.0,95,0.00,,BKN120,1.10,0.00,VWS V14.01,2013-08-04 02:16:00,
2013-08-03 22:20:00,76.0,74.5,30.08,ENE,77,0.0,0.0,95,0.00,,BKN120,1.10,0.00,VWS V14.01,2013-08-04 02:20:00,
2013-08-03 22:26:00,76.0,74.5,30.08,ENE,77,0.0,0.0,95,0.00,,BKN120,1.10,0.00,VWS V14.01,2013-08-04 02:26:00,
2013-08-03 22:31:00,76.0,74.5,30.09,ENE,77,0.0,0.0,95,0.00,,BKN120,1.10,0.00,VWS V14.01,2013-08-04 02:31:00,
2013-08-03 22:35:00,76.1,74.6,30.09,ENE,77,0.0,0.0,95,0.00,,BKN120,1.10,0.00,VWS V14.01,2013-08-04 02:35:00,
2013-08-03 22:41:00,76.0,74.5,30.09,ENE,77,0.0,0.0,95,0.00,,BKN120,1.10,0.00,VWS V14.01,2013-08-04 02:41:00,
2013-08-03 22:46:00,76.0,74.5,30.09,ENE,77,0.0,0.0,95,0.00,,BKN120,1.10,0.00,VWS V14.01,2013-08-04 02:46:00,
2013-08-03 22:51:00,75.9,74.4,30.09,ENE,77,0.0,0.0,95,0.00,,BKN120,1.10,0.00,VWS V14.01,2013-08-04 02:51:00,
2013-08-03 22:56:00,75.9,74.4,30.09,ENE,77,0.0,0.0,95,0.00,,BKN120,1.10,0.00,VWS V14.01,2013-08-04 02:56:00,
2013-08-03 23:01:00,75.8,74.3,30.10,ENE,77,0.0,0.0,95,0.00,,SCT110,1.10,0.00,VWS V14.01,2013-08-04 03:01:00,
2013-08-03 23:06:00,75.8,74.3,30.09,ENE,77,0.0,0.0,95,0.00,,SCT110,1.10,0.00,VWS V14.01,2013-08-04 03:06:00,
2013-08-03 23:11:00,75.8,74.3,30.09,ENE,77,0.0,0.0,95,0.00,,SCT110,1.10,0.00,VWS V14.01,2013-08-04 03:11:00,
2013-08-03 23:16:00,75.8,74.3,30.09,ENE,77,0.0,0.0,95,0.00,,SCT110,1.10,0.00,VWS V14.01,2013-08-04 03:16:00,
2013-08-03 23:20:00,76.0,74.5,30.08,ENE,77,0.0,0.0,95,0.00,,SCT110,1.10,0.00,VWS V14.01,2013-08-04 03:20:00,
2013-08-03 23:26:00,76.2,74.7,30.08,ENE,77,1.0,2.0,95,0.00,,SCT110,1.10,0.00,VWS V14.01,2013-08-04 03:26:00,
2013-08-03 23:30:00,76.2,74.7,30.08,ENE,77,0.0,0.0,95,0.00,,SCT110,1.10,0.00,VWS V14.01,2013-08-04 03:30:00,
2013-08-03 23:36:00,76.2,74.7,30.08,ENE,77,0.0,0.0,95,0.00,,SCT110,1.10,0.00,VWS V14.01,2013-08-04 03:36:00,
2013-08-03 23:41:00,76.1,74.6,30.08,ENE,77,0.0,1.0,95,0.00,,SCT110,1.10,0.00,VWS V14.01,2013-08-04 03:41:00,
2013-08-03 23:45:00,76.1,74.6,30.08,ENE,77,0.0,0.0,95,0.00,,SCT110,1.10,0.00,VWS V14.01,2013-08-04 03:45:00,
2013-08-03 23:51:00,76.2,74.7,30.08,ENE,77,0.0,0.0,95,0.00,,SCT110,1.10,0.00,VWS V14.01,2013-08-04 03:51:00,
2013-08-03 23:56:00,76.2,74.7,30.08,ENE,77,0.0,0.0,95,0.00,,SCT110,1.10,0.00,VWS V14.01,2013-08-04 03:56:00,